WA6MHA-11 Weather Reports


Display with metric or nautical units.
time (UTC)temp
F
wind
direction
speed
MPH
gust
MPH
rain 1hr
in
rain 24hr
in
rain mn
in
humidity
%
barometer
mb
20190423003141 83 270 8.0 12.0 0.00 0.00 0.00 22 1015.2
20190423003136 83 270 8.0 12.0 0.00 0.00 0.00 22 1015.2
20190423002739 83 270 11.0 11.0 0.00 0.00 0.00 22 1015.2
20190423002736 83 270 11.0 11.0 0.00 0.00 0.00 22 1015.2
20190423002337 83 243 11.0 12.0 0.00 0.00 0.00 22 1015.3
20190423002334 83 243 11.0 12.0 0.00 0.00 0.00 22 1015.3
20190423001939 83 265 5.0 13.0 0.00 0.00 0.00 22 1015.3
20190423001933 83 265 5.0 13.0 0.00 0.00 0.00 22 1015.3
20190423001531 83 270 7.0 13.0 0.00 0.00 0.00 22 1015.2
20190423001130 83 252 4.0 12.0 0.00 0.00 0.00 22 1015.3
20190423000729 83 250 5.0 12.0 0.00 0.00 0.00 22 1015.2
20190423000330 82 274 12.0 13.0 0.00 0.00 0.00 23 1015.2
20190423000327 82 274 12.0 13.0 0.00 0.00 0.00 23 1015.2
20190422235928 84 272 9.0 12.0 0.00 0.00 0.00 23 1015.3
20190422235926 84 272 9.0 12.0 0.00 0.00 0.00 23 1015.3
20190422235532 83 270 11.0 15.0 0.00 0.00 0.00 23 1015.3
20190422235123 84 270 9.0 14.0 0.00 0.00 0.00 23 1015.3
20190422234724 85 292 5.0 10.0 0.00 0.00 0.00 23 1015.4
20190422234722 85 292 5.0 10.0 0.00 0.00 0.00 23 1015.4
20190422234325 85 290 6.0 14.0 0.00 0.00 0.00 23 1015.5
20190422234321 85 290 6.0 14.0 0.00 0.00 0.00 23 1015.5
20190422233919 85 270 9.0 10.0 0.00 0.00 0.00 23 1015.4
20190422233524 85 294 10.0 11.0 0.00 0.00 0.00 24 1015.5
20190422233521 85 294 10.0 11.0 0.00 0.00 0.00 24 1015.5
20190422233518 85 294 10.0 11.0 0.00 0.00 0.00 24 1015.5
20190422233121 85 270 7.0 14.0 0.00 0.00 0.00 24 1015.5
20190422233119 85 270 7.0 14.0 0.00 0.00 0.00 24 1015.5
20190422233117 85 270 7.0 14.0 0.00 0.00 0.00 24 1015.5
20190422232715 85 240 7.0 13.0 0.00 0.00 0.00 24 1015.5
20190422232314 85 250 4.0 10.0 0.00 0.00 0.00 24 1015.5
20190422231915 85 267 6.0 14.0 0.00 0.00 0.00 24 1015.6
20190422231514 85 276 9.0 11.0 0.00 0.00 0.00 24 1015.5
20190422231512 85 276 9.0 11.0 0.00 0.00 0.00 24 1015.5
20190422231113 85 274 8.0 13.0 0.00 0.00 0.00 25 1015.5
20190422231110 85 274 8.0 13.0 0.00 0.00 0.00 25 1015.5
20190422230713 85 180 9.0 13.0 0.00 0.00 0.00 25 1015.5
20190422230709 85 180 9.0 13.0 0.00 0.00 0.00 25 1015.5
20190422230310 86 267 4.0 10.0 0.00 0.00 0.00 25 1015.6
20190422230308 86 267 4.0 10.0 0.00 0.00 0.00 25 1015.6
20190422225906 86 247 5.0 12.0 0.00 0.00 0.00 24 1015.6
20190422225509 85 225 8.0 14.0 0.00 0.00 0.00 24 1015.6
20190422225507 85 225 8.0 14.0 0.00 0.00 0.00 24 1015.6
20190422225505 85 225 8.0 14.0 0.00 0.00 0.00 24 1015.6
20190422225106 85 245 8.0 10.0 0.00 0.00 0.00 24 1015.6
20190422225104 85 245 8.0 10.0 0.00 0.00 0.00 24 1015.6
20190422224702 86 227 7.0 10.0 0.00 0.00 0.00 25 1015.7
20190422223900 86 227 2.0 10.0 0.00 0.00 0.00 25 1015.6
20190422223501 86 218 4.0 6.0 0.00 0.00 0.00 26 1015.6
20190422223100 85 258 6.0 12.0 0.00 0.00 0.00 26 1015.7
20190422223057 85 258 6.0 12.0 0.00 0.00 0.00 26 1015.7
20190422222658 86 297 6.0 11.0 0.00 0.00 0.00 26 1015.7
20190422222254 85 230 6.0 13.0 0.00 0.00 0.00 26 1015.8
20190422221857 85 303 11.0 12.0 0.00 0.00 0.00 27 1015.8
20190422221853 85 303 11.0 12.0 0.00 0.00 0.00 27 1015.8
20190422221050 83 310 5.0 11.0 0.00 0.00 0.00 27 1016.0
20190422220651 84 12 7.0 12.0 0.00 0.00 0.00 27 1016.0
20190422220248 86 301 2.0 6.0 0.00 0.00 0.00 27 1016.1
20190422215852 85 270 6.0 9.0 0.00 0.00 0.00 26 1016.3
20190422215849 85 270 6.0 9.0 0.00 0.00 0.00 26 1016.3
20190422215847 85 270 6.0 9.0 0.00 0.00 0.00 26 1016.3
20190422215447 84 292 8.0 12.0 0.00 0.00 0.00 27 1016.2
20190422214647 83 315 9.0 13.0 0.00 0.00 0.00 28 1016.2
20190422214644 83 315 9.0 13.0 0.00 0.00 0.00 28 1016.2
20190422214243 85 45 7.0 13.0 0.00 0.00 0.00 28 1016.3
20190422213439 84 42 6.0 8.0 0.00 0.00 0.00 28 1016.5
20190422212630 85 344 6.0 9.0 0.00 0.00 0.00 28 1016.4
20190422211038 92 283 8.0 8.0 0.00 0.00 0.00 29 1016.2
20190422211025 92 283 8.0 8.0 0.00 0.00 0.00 29 1016.2
20190422210624 91 263 2.0 5.0 0.00 0.00 0.00 29 1016.3
20190422205823 91 334 1.0 5.0 0.00 0.00 0.00 30 1016.4
20190422205820 91 334 1.0 5.0 0.00 0.00 0.00 30 1016.4
20190422205424 90 270 2.0 4.0 0.00 0.00 0.00 30 1016.5
20190422205422 90 270 2.0 4.0 0.00 0.00 0.00 30 1016.5
20190422205420 90 270 2.0 4.0 0.00 0.00 0.00 30 1016.5
20190422205018 88 159 1.0 5.0 0.00 0.00 0.00 30 1016.5
20190422204626 87 182 1.0 3.0 0.00 0.00 0.00 30 1016.7
20190422204618 87 182 1.0 3.0 0.00 0.00 0.00 30 1016.7
20190422204220 86 353 3.0 3.0 0.00 0.00 0.00 30 1016.8
20190422204216 86 353 3.0 3.0 0.00 0.00 0.00 30 1016.8
20190422203817 85 353 3.0 7.0 0.00 0.00 0.00 31 1017.0
20190422203814 85 353 3.0 7.0 0.00 0.00 0.00 31 1017.0
20190422203413 87 270 4.0 6.0 0.00 0.00 0.00 31 1017.0
20190422203011 89 315 1.0 4.0 0.00 0.00 0.00 31 1017.0
20190422202618 89 270 1.0 3.0 0.00 0.00 0.00 31 1017.0
20190422202209 87 315 0.0 3.0 0.00 0.00 0.00 31 1017.1
20190422201810 85 175 4.0 7.0 0.00 0.00 0.00 32 1017.0
20190422201409 85 270 0.0 7.0 0.00 0.00 0.00 32 1017.1
20190422201406 85 270 0.0 7.0 0.00 0.00 0.00 32 1017.1
20190422201005 84 99 6.0 9.0 0.00 0.00 0.00 32 1017.2
20190422200603 85 137 4.0 9.0 0.00 0.00 0.00 32 1017.3
20190422200205 85 96 8.0 8.0 0.00 0.00 0.00 32 1017.3
20190422200202 85 96 8.0 8.0 0.00 0.00 0.00 32 1017.3
20190422195801 85 96 5.0 6.0 0.00 0.00 0.00 32 1017.4
20190422195400 85 180 0.0 5.0 0.00 0.00 0.00 33 1017.4
20190422194958 85 159 4.0 6.0 0.00 0.00 0.00 33 1017.5
20190422194559 84 182 1.0 4.0 0.00 0.00 0.00 33 1017.5
20190422194557 84 182 1.0 4.0 0.00 0.00 0.00 33 1017.5
20190422193755 84 0 1.0 3.0 0.00 0.00 0.00 33 1017.7
20190422193353 82 126 5.0 6.0 0.00 0.00 0.00 34 1017.7
20190422192952 82 137 1.0 3.0 0.00 0.00 0.00 34 1017.7
20190422192551 80 92 1.0 7.0 0.00 0.00 0.00 34 1017.9
20190422192149 79 135 3.0 6.0 0.00 0.00 0.00 34 1017.8
20190422191755 78 92 8.0 9.0 0.00 0.00 0.00 34 1017.8
20190422191748 78 92 8.0 9.0 0.00 0.00 0.00 34 1017.8
20190422191346 79 92 3.0 6.0 0.00 0.00 0.00 34 1017.9
20190422190544 78 92 3.0 9.0 0.00 0.00 0.00 35 1018.1
20190422190147 81 85 4.0 6.0 0.00 0.00 0.00 35 1018.0
20190422190142 81 85 4.0 6.0 0.00 0.00 0.00 35 1018.0
20190422185743 81 186 2.0 6.0 0.00 0.00 0.00 35 1018.2
20190422185741 81 186 2.0 6.0 0.00 0.00 0.00 35 1018.2
20190422185340 78 175 1.0 7.0 0.00 0.00 0.00 35 1018.1
20190422184941 77 87 3.0 7.0 0.00 0.00 0.00 36 1018.2
20190422184939 77 87 3.0 7.0 0.00 0.00 0.00 36 1018.2
20190422184540 78 81 7.0 8.0 0.00 0.00 0.00 36 1018.1
20190422184537 78 81 7.0 8.0 0.00 0.00 0.00 36 1018.1
20190422184139 77 171 2.0 8.0 0.00 0.00 0.00 36 1018.2
20190422184137 77 171 2.0 8.0 0.00 0.00 0.00 36 1018.2
20190422183739 78 90 7.0 7.0 0.00 0.00 0.00 36 1018.2
20190422183735 78 90 7.0 7.0 0.00 0.00 0.00 36 1018.2
20190422183333 78 110 7.0 9.0 0.00 0.00 0.00 37 1018.1
20190422182932 78 83 3.0 9.0 0.00 0.00 0.00 37 1018.2
20190422182123 79 87 3.0 6.0 0.00 0.00 0.00 38 1018.2
20190422181722 79 112 6.0 8.0 0.00 0.00 0.00 38 1018.3
20190422181325 80 99 5.0 6.0 0.00 0.00 0.00 39 1018.4
20190422181321 80 99 5.0 6.0 0.00 0.00 0.00 39 1018.4
20190422180919 81 247 1.0 4.0 0.00 0.00 0.00 39 1018.3
20190422180523 79 182 5.0 7.0 0.00 0.00 0.00 39 1018.3
20190422180521 79 182 5.0 7.0 0.00 0.00 0.00 39 1018.3
20190422180518 79 182 5.0 7.0 0.00 0.00 0.00 39 1018.3
20190422180123 79 132 2.0 3.0 0.00 0.00 0.00 40 1018.4
20190422180117 79 132 2.0 3.0 0.00 0.00 0.00 40 1018.4
20190422175719 80 270 0.0 6.0 0.00 0.00 0.00 40 1018.5
20190422175717 80 270 0.0 6.0 0.00 0.00 0.00 40 1018.5
20190422175320 79 166 1.0 6.0 0.00 0.00 0.00 41 1018.5
20190422175317 79 166 1.0 6.0 0.00 0.00 0.00 41 1018.5
20190422175314 79 166 1.0 6.0 0.00 0.00 0.00 41 1018.5
20190422174113 76 204 1.0 5.0 0.00 0.00 0.00 42 1018.7
20190422174110 76 204 1.0 5.0 0.00 0.00 0.00 42 1018.7
20190422173314 76 13 3.0 8.0 0.00 0.00 0.00 43 1018.6
20190422173310 76 13 3.0 8.0 0.00 0.00 0.00 43 1018.6
20190422173308 76 13 3.0 8.0 0.00 0.00 0.00 43 1018.6
20190422172909 77 119 5.0 6.0 0.00 0.00 0.00 43 1018.6
20190422172906 77 119 5.0 6.0 0.00 0.00 0.00 43 1018.6
20190422172505 76 220 2.0 4.0 0.00 0.00 0.00 44 1018.6
20190422172106 76 2 1.0 5.0 0.00 0.00 0.00 44 1018.6
20190422172103 76 2 1.0 5.0 0.00 0.00 0.00 44 1018.6
20190422171702 75 115 5.0 8.0 0.00 0.00 0.00 45 1018.5
20190422171308 74 99 4.0 8.0 0.00 0.00 0.00 45 1018.4
20190422171302 74 99 4.0 8.0 0.00 0.00 0.00 45 1018.4
20190422170900 75 92 3.0 5.0 0.00 0.00 0.00 46 1018.5
20190422170501 74 58 4.0 4.0 0.00 0.00 0.00 46 1018.5
20190422170459 74 58 4.0 4.0 0.00 0.00 0.00 46 1018.5
20190422170102 74 353 1.0 5.0 0.00 0.00 0.00 46 1018.5
20190422170100 74 353 1.0 5.0 0.00 0.00 0.00 46 1018.5
20190422170057 74 353 1.0 5.0 0.00 0.00 0.00 46 1018.5
20190422165655 74 119 4.0 6.0 0.00 0.00 0.00 47 1018.4
20190422165258 75 45 1.0 5.0 0.00 0.00 0.00 47 1018.4
20190422165254 75 45 1.0 5.0 0.00 0.00 0.00 47 1018.4
20190422164452 74 101 4.0 5.0 0.00 0.00 0.00 48 1018.4
20190422164051 73 353 0.0 4.0 0.00 0.00 0.00 49 1018.4
20190422163649 72 87 2.0 3.0 0.00 0.00 0.00 49 1018.4
20190422163250 72 96 0.0 3.0 0.00 0.00 0.00 50 1018.4
20190422163248 72 96 0.0 3.0 0.00 0.00 0.00 50 1018.4
20190422162853 71 114 1.0 5.0 0.00 0.00 0.00 50 1018.4
20190422162849 71 114 1.0 5.0 0.00 0.00 0.00 50 1018.4
20190422162846 71 114 1.0 5.0 0.00 0.00 0.00 50 1018.4
20190422162448 70 342 3.0 7.0 0.00 0.00 0.00 50 1018.4
20190422162445 70 342 3.0 7.0 0.00 0.00 0.00 50 1018.4
20190422162048 71 87 1.0 4.0 0.00 0.00 0.00 51 1018.4
20190422162046 71 87 1.0 4.0 0.00 0.00 0.00 51 1018.4
20190422162044 71 87 1.0 4.0 0.00 0.00 0.00 51 1018.4
20190422161245 69 119 1.0 4.0 0.00 0.00 0.00 51 1018.4
20190422161241 69 119 1.0 4.0 0.00 0.00 0.00 51 1018.4
20190422160844 69 69 0.0 1.0 0.00 0.00 0.00 52 1018.5
20190422160842 69 69 0.0 1.0 0.00 0.00 0.00 52 1018.5
20190422160839 69 69 0.0 1.0 0.00 0.00 0.00 52 1018.5
20190422160446 68 110 2.0 4.0 0.00 0.00 0.00 52 1018.3
20190422160441 68 110 2.0 4.0 0.00 0.00 0.00 52 1018.3
20190422160438 68 110 2.0 4.0 0.00 0.00 0.00 52 1018.3
20190422160041 68 135 1.0 4.0 0.00 0.00 0.00 52 1018.4
20190422160037 68 135 1.0 4.0 0.00 0.00 0.00 52 1018.4
20190422155636 67 94 3.0 3.0 0.00 0.00 0.00 53 1018.3
20190422155240 67 101 1.0 2.0 0.00 0.00 0.00 53 1018.3
20190422155235 67 101 1.0 2.0 0.00 0.00 0.00 53 1018.3
20190422154837 67 65 1.0 2.0 0.00 0.00 0.00 53 1018.3
20190422154833 67 65 1.0 2.0 0.00 0.00 0.00 53 1018.3
20190422154039 66 357 0.0 2.0 0.00 0.00 0.00 54 1018.3
20190422154035 66 357 0.0 2.0 0.00 0.00 0.00 54 1018.3
20190422153234 63 290 1.0 3.0 0.00 0.00 0.00 54 1018.2
20190422153231 63 290 1.0 3.0 0.00 0.00 0.00 54 1018.2
20190422153228 63 290 1.0 3.0 0.00 0.00 0.00 54 1018.2
20190422152830 62 265 0.0 1.0 0.00 0.00 0.00 54 1018.4
20190422152827 62 265 0.0 1.0 0.00 0.00 0.00 54 1018.4
20190422152425 60 0 1.0 3.0 0.00 0.00 0.00 54 1018.3
20190422152026 60 310 1.0 3.0 0.00 0.00 0.00 54 1018.3
20190422152024 60 310 1.0 3.0 0.00 0.00 0.00 54 1018.3
20190422151630 60 348 2.0 2.0 0.00 0.00 0.00 54 1018.3
20190422151625 60 348 2.0 2.0 0.00 0.00 0.00 54 1018.3
20190422151622 60 348 2.0 2.0 0.00 0.00 0.00 54 1018.3
20190422150825 59 4 0.0 2.0 0.00 0.00 0.00 55 1018.4
20190422150821 59 4 0.0 2.0 0.00 0.00 0.00 55 1018.4
20190422150422 59 270 0.0 3.0 0.00 0.00 0.00 55 1018.5
20190422150419 59 270 0.0 3.0 0.00 0.00 0.00 55 1018.5
20190422150020 58 290 2.0 3.0 0.00 0.00 0.00 55 1018.4
20190422150018 58 290 2.0 3.0 0.00 0.00 0.00 55 1018.4
20190422145616 58 294 2.0 2.0 0.00 0.00 0.00 55 1018.4
20190422144813 56 0 0.0 1.0 0.00 0.00 0.00 55 1018.5
20190422144417 55 40 0.0 1.0 0.00 0.00 0.00 55 1018.4
20190422144413 55 40 0.0 1.0 0.00 0.00 0.00 55 1018.4
20190422144014 54 24 0.0 1.0 0.00 0.00 0.00 55 1018.4
20190422144011 54 24 0.0 1.0 0.00 0.00 0.00 55 1018.4
20190422143612 53 0 1.0 1.0 0.00 0.00 0.00 55 1018.4
20190422143609 53 0 1.0 1.0 0.00 0.00 0.00 55 1018.4
20190422143211 52 0 0.0 0.0 0.00 0.00 0.00 55 1018.4
20190422143208 52 0 0.0 0.0 0.00 0.00 0.00 55 1018.4
20190422142812 52 0 0.0 1.0 0.00 0.00 0.00 55 1018.3
20190422142807 52 0 0.0 1.0 0.00 0.00 0.00 55 1018.3
20190422142406 50 315 1.0 1.0 0.00 0.00 0.00 55 1018.3
20190422142007 50 353 0.0 1.0 0.00 0.00 0.00 55 1018.4
20190422142004 50 353 0.0 1.0 0.00 0.00 0.00 55 1018.4
20190422141610 49 0 1.0 1.0 0.00 0.00 0.00 55 1018.2
20190422141606 49 0 1.0 1.0 0.00 0.00 0.00 55 1018.2
20190422141603 49 0 1.0 1.0 0.00 0.00 0.00 55 1018.2
20190422141204 49 0 1.0 1.0 0.00 0.00 0.00 54 1018.3
20190422140800 48 353 1.0 1.0 0.00 0.00 0.00 54 1018.2
20190422140402 48 315 0.0 0.0 0.00 0.00 0.00 54 1018.1
20190422140359 48 315 0.0 0.0 0.00 0.00 0.00 54 1018.1
20190422140001 47 270 0.0 1.0 0.00 0.00 0.00 54 1018.1
20190422135958 47 270 0.0 1.0 0.00 0.00 0.00 54 1018.1
20190422135557 47 270 0.0 1.0 0.00 0.00 0.00 54 1018.0
20190422135155 46 270 1.0 1.0 0.00 0.00 0.00 54 1017.9
20190422134754 45 270 0.0 0.0 0.00 0.00 0.00 54 1018.0
20190422134355 45 270 0.0 1.0 0.00 0.00 0.00 54 1017.9
20190422134352 45 270 0.0 1.0 0.00 0.00 0.00 54 1017.9
20190422133951 44 225 1.0 1.0 0.00 0.00 0.00 54 1017.9
20190422133626 44 225 0.0 1.0 0.00 0.00 0.00 54 1017.9
20190422133550 44 225 0.0 1.0 0.00 0.00 0.00 54 1017.9
20190422133151 44 227 0.0 0.0 0.00 0.00 0.00 54 1017.9
20190422133149 44 227 0.0 0.0 0.00 0.00 0.00 54 1017.9
20190422132747 43 225 0.0 1.0 0.00 0.00 0.00 54 1017.9
20190422132348 43 180 0.0 1.0 0.00 0.00 0.00 54 1017.8
20190422132346 43 180 0.0 1.0 0.00 0.00 0.00 54 1017.8
20190422131947 44 180 0.0 1.0 0.00 0.00 0.00 54 1017.7
20190422131944 44 180 0.0 1.0 0.00 0.00 0.00 54 1017.7
20190422131545 44 180 1.0 1.0 0.00 0.00 0.00 54 1017.7
20190422131543 44 180 1.0 1.0 0.00 0.00 0.00 54 1017.7
20190422131145 43 0 0.0 0.0 0.00 0.00 0.00 54 1017.7
20190422131142 43 0 0.0 0.0 0.00 0.00 0.00 54 1017.7
20190422130342 43 0 0.0 0.0 0.00 0.00 0.00 54 1017.7
20190422130340 43 0 0.0 0.0 0.00 0.00 0.00 54 1017.7
20190422125943 43 0 0.0 1.0 0.00 0.00 0.00 54 1017.8
20190422125938 43 0 0.0 1.0 0.00 0.00 0.00 54 1017.8
20190422125139 44 90 0.0 0.0 0.00 0.00 0.00 54 1017.6
20190422125135 44 90 0.0 0.0 0.00 0.00 0.00 54 1017.6
20190422124734 44 90 0.0 1.0 0.00 0.00 0.00 54 1017.7
20190422124338 44 22 1.0 1.0 0.00 0.00 0.00 54 1017.8
20190422124335 44 22 1.0 1.0 0.00 0.00 0.00 54 1017.8
20190422124333 44 22 1.0 1.0 0.00 0.00 0.00 54 1017.8
20190422123932 44 0 0.0 0.0 0.00 0.00 0.00 54 1017.7
20190422123532 44 0 1.0 1.0 0.00 0.00 0.00 54 1017.7
20190422123530 44 0 1.0 1.0 0.00 0.00 0.00 54 1017.7
20190422123132 45 180 0.0 0.0 0.00 0.00 0.00 54 1017.7
20190422123128 45 180 0.0 0.0 0.00 0.00 0.00 54 1017.7
20190422122731 45 180 0.0 1.0 0.00 0.00 0.00 54 1017.6
20190422121925 45 180 1.0 1.0 0.00 0.00 0.00 54 1017.6
20190422121526 45 270 0.0 1.0 0.00 0.00 0.00 53 1017.6
20190422121524 45 270 0.0 1.0 0.00 0.00 0.00 53 1017.6
20190422121125 45 0 0.0 0.0 0.00 0.00 0.00 53 1017.5
20190422121122 45 0 0.0 0.0 0.00 0.00 0.00 53 1017.5
20190422120723 45 0 0.0 0.0 0.00 0.00 0.00 54 1017.4
20190422120720 45 0 0.0 0.0 0.00 0.00 0.00 54 1017.4
20190422120322 45 0 0.0 1.0 0.00 0.00 0.00 54 1017.6
20190422120319 45 0 0.0 1.0 0.00 0.00 0.00 54 1017.6
20190422115918 45 0 1.0 1.0 0.00 0.00 0.00 53 1017.5
20190422115117 45 0 0.0 1.0 0.00 0.00 0.00 53 1017.6
20190422113911 45 90 0.0 0.0 0.00 0.00 0.00 53 1017.6
20190422113513 45 90 0.0 0.0 0.00 0.00 0.00 53 1017.6
20190422113511 45 90 0.0 0.0 0.00 0.00 0.00 53 1017.6
20190422113113 45 135 0.0 0.0 0.00 0.00 0.00 53 1017.6
20190422113109 45 135 0.0 0.0 0.00 0.00 0.00 53 1017.6
20190422112710 0 135 0.0 0.0 0.46 0.00 0.00 53 1017.7
20190422112708 46 135 0.0 0.0 0.00 0.00 0.00 53 1017.7
20190422112306 46 135 0.0 1.0 0.00 0.00 0.00 54 1017.7
20190422111906 46 135 1.0 2.0 0.00 0.00 0.00 54 1017.6
20190422111506 46 135 1.0 2.0 0.00 0.00 0.00 54 1017.8
20190422111102 47 270 0.0 1.0 0.00 0.00 0.00 54 1017.8
20190422110711 46 270 1.0 1.0 0.00 0.00 0.00 54 1017.8
20190422110704 46 270 1.0 1.0 0.00 0.00 0.00 54 1017.8
20190422110701 46 270 1.0 1.0 0.00 0.00 0.00 54 1017.8
20190422110300 47 315 0.0 1.0 0.00 0.00 0.00 54 1017.8
20190422105858 47 315 1.0 1.0 0.00 0.00 0.00 53 1017.8
20190422105501 47 315 1.0 2.0 0.00 0.00 0.00 53 1017.8
20190422105457 47 315 1.0 2.0 0.00 0.00 0.00 53 1017.8
20190422105102 47 270 1.0 1.0 0.00 0.00 0.00 53 1017.8
20190422105056 47 270 1.0 1.0 0.00 0.00 0.00 53 1017.8
20190422104253 46 182 1.0 1.0 0.00 0.00 0.00 53 1017.8
20190422103454 46 315 1.0 1.0 0.00 0.00 0.00 52 1017.8
20190422103450 46 315 1.0 1.0 0.00 0.00 0.00 52 1017.8
20190422103052 47 157 0.0 0.0 0.00 0.00 0.00 53 1017.7
20190422103049 47 157 0.0 0.0 0.00 0.00 0.00 53 1017.7
20190422102652 48 180 0.0 2.0 0.00 0.00 0.00 53 1017.7
20190422102648 48 180 0.0 2.0 0.00 0.00 0.00 53 1017.7
20190422102248 48 180 2.0 2.0 0.00 0.00 0.00 52 1017.7
20190422101848 48 180 3.0 4.0 0.00 0.00 0.00 52 1017.8
20190422101845 48 180 3.0 4.0 0.00 0.00 0.00 52 1017.8
20190422101447 47 202 0.0 1.0 0.00 0.00 0.00 52 1017.9
20190422101444 47 202 0.0 1.0 0.00 0.00 0.00 52 1017.9
20190422100240 47 270 1.0 2.0 0.00 0.00 0.00 52 1017.8
20190422095843 47 315 0.0 1.0 0.00 0.00 0.00 52 1017.7
20190422095839 47 315 0.0 1.0 0.00 0.00 0.00 52 1017.7
20190422095440 47 315 1.0 1.0 0.00 0.00 0.00 52
20190422095438 47 315 1.0 1.0 0.00 0.00 0.00 52 1017.8
20190422095039 47 276 1.0 1.0 0.00 0.00 0.00 52 1017.7
20190422095036 47 276 1.0 1.0 0.00 0.00 0.00 52 1017.7
20190422094638 47 270 1.0 1.0 0.00 0.00 0.00 51 1017.7
20190422094635 47 270 1.0 1.0 0.00 0.00 0.00 51 1017.7
20190422094233 47 270 1.0 1.0 0.00 0.00 0.00 51 1017.7
20190422093834 47 45 0.0 1.0 0.00 0.00 0.00 51 1017.8
20190422093832 47 45 0.0 1.0 0.00 0.00 0.00 51 1017.8
20190422093434 47 45 0.0 0.0 0.00 0.00 0.00 51 1017.8
20190422093431 47 45 0.0 0.0 0.00 0.00 0.00 51 1017.8
20190422093032 47 45 0.0 0.0 0.00 0.00 0.00 51 1017.9
20190422093029 47 45 0.0 0.0 0.00 0.00 0.00 51 1017.9
20190422092628 47 45 0.0 0.0 0.00 0.00 0.00 51 1018.0
20190422092229 47 45 0.0 1.0 0.00 0.00 0.00 51 1018.1
20190422091851 47 45 1.0 1.0 0.00 0.00 0.00 51 1018.1
20190422091427 48 180 0.0 0.0 0.00 0.00 0.00 51 1018.2
20190422091025 48 180 0.0 2.0 0.00 0.00 0.00 51 1018.1
20190422091023 48 180 0.0 2.0 0.00 0.00 0.00 51 1018.1
20190422090221 48 270 0.0 1.0 0.00 0.00 0.00 51 1018.4
20190422085821 49 270 0.0 0.0 0.00 0.00 0.00 51 1018.4
20190422085819 49 270 0.0 0.0 0.00 0.00 0.00 51 1018.4
20190422085420 49 270 0.0 0.0 0.00 0.00 0.00 51 1018.4
20190422085417 49 270 0.0 0.0 0.00 0.00 0.00 51 1018.4
20190422084620 49 270 0.0 0.0 0.00 0.00 0.00 51 1018.6
20190422084615 49 270 0.0 0.0 0.00 0.00 0.00 51 1018.6
20190422084217 49 270 0.0 0.0 0.00 0.00 0.00 51 1018.6
20190422084214 49 270 0.0 0.0 0.00 0.00 0.00 51 1018.6
20190422083813 49 270 0.0 0.0 0.00 0.00 0.00 50 1018.6
20190422082611 49 270 0.0 0.0 0.00 0.00 0.00 50 1018.5
20190422082222 49 270 0.0 0.0 0.00 0.00 0.00 50
20190422082209 49 270 0.0 0.0 0.00 0.00 0.00 50 1018.6
20190422082207 49 270 0.0 0.0 0.00 0.00 0.00 50 1018.6
20190422081808 49 270 0.0 0.0 0.00 0.00 0.00 50 1018.5
20190422081806 49 270 0.0 0.0 0.00 0.00 0.00 50 1018.5
20190422081407 49 270 0.0 2.0 0.00 0.00 0.00 50 1018.6
20190422081405 49 270 0.0 2.0 0.00 0.00 0.00 50 1018.6
20190422081003 49 270 2.0 2.0 0.00 0.00 0.00 50 1018.5
20190422080604 49 225 0.0 1.0 0.00 0.00 0.00 50 1018.5
20190422080601 49 225 0.0 1.0 0.00 0.00 0.00 50 1018.5
20190422080202 49 90 0.0 0.0 0.00 0.00 0.00 50 1018.7
20190422080200 49 90 0.0 0.0 0.00 0.00 0.00 50 1018.7
20190422075759 49 90 0.0 0.0 0.00 0.00 0.00 50 1018.7
20190422075400 49 90 0.0 0.0 0.00 0.00 0.00 50 1018.7
20190422075358 49 90 0.0 0.0 0.00 0.00 0.00 50 1018.7
20190422074959 49 90 0.0 0.0 0.00 0.00 0.00 49 1018.7
20190422074957 49 90 0.0 0.0 0.00 0.00 0.00 49 1018.7
20190422074555 49 90 0.0 1.0 0.00 0.00 0.00 49 1018.6
20190422074153 49 90 0.0 1.0 0.00 0.00 0.00 49 1018.7
20190422073752 49 90 0.0 1.0 0.00 0.00 0.00 49 1018.7
20190422073351 49 90 1.0 2.0 0.00 0.00 0.00 49 1018.5
20190422072953 49 90 2.0 2.0 0.00 0.00 0.00 49 1018.6
20190422072950 49 90 2.0 2.0 0.00 0.00 0.00 49 1018.6
20190422072550 49 90 1.0 2.0 0.00 0.00 0.00 49 1018.6
20190422072147 49 90 2.0 3.0 0.00 0.00 0.00 49 1018.5
20190422071750 49 90 3.0 4.0 0.00 0.00 0.00 49 1018.5
20190422071344 50 99 3.0 3.0 0.00 0.00 0.00 49 1018.6
20190422070951 50 135 3.0 3.0 0.00 0.00 0.00 49 1018.6
20190422070949 50 135 3.0 3.0 0.00 0.00 0.00 49 1018.6
20190422070544 50 135 3.0 4.0 0.00 0.00 0.00 48 1018.6
20190422070542 50 135 3.0 4.0 0.00 0.00 0.00 48 1018.6
20190422070141 50 90 2.0 3.0 0.00 0.00 0.00 48 1018.6
20190422065742 49 90 3.0 4.0 0.00 0.00 0.00 48 1018.6
20190422065739 49 90 3.0 4.0 0.00 0.00 0.00 48 1018.6
20190422065340 50 90 3.0 4.0 0.00 0.00 0.00 48 1018.6
20190422065338 50 90 3.0 4.0 0.00 0.00 0.00 48 1018.6
20190422064937 50 128 4.0 4.0 0.00 0.00 0.00 48 1018.6
20190422064535 50 130 3.0 4.0 0.00 0.00 0.00 48 1018.6
20190422063733 49 90 3.0 4.0 0.00 0.00 0.00 48 1018.5
20190422063334 49 90 4.0 4.0 0.00 0.00 0.00 48 1018.4
20190422062622 50 90 3.0 3.0 0.00 0.00 0.00 47 1018.3
20190422062609 50 90 3.0 3.0 0.00 0.00 0.00 47 1018.3
20190422061726 50 90 3.0 4.0 0.00 0.00 0.00 47 1018.3
20190422061325 50 90 3.0 3.0 0.00 0.00 0.00 47 1018.3
20190422060926 50 90 1.0 3.0 0.00 0.00 0.00 47 1018.4
20190422060924 50 90 1.0 3.0 0.00 0.00 0.00 47 1018.4
20190422060522 50 90 3.0 3.0 0.00 0.00 0.00 47 1018.3
20190422060121 50 90 2.0 2.0 0.00 0.00 0.00 46 1018.4
20190422055722 50 90 1.0 3.0 0.00 0.00 0.00 46 1018.3
20190422055719 50 90 1.0 3.0 0.00 0.00 0.00 46 1018.3
20190422055319 51 90 3.0 3.0 0.00 0.00 0.00 46 1018.4
20190422054917 51 90 0.0 1.0 0.00 0.00 0.00 46 1018.4
20190422054515 51 90 1.0 1.0 0.00 0.00 0.00 46 1018.3
20190422054116 51 90 1.0 1.0 0.00 0.00 0.00 46 1018.3
20190422054114 51 90 1.0 1.0 0.00 0.00 0.00 46 1018.3
20190422053314 51 90 1.0 1.0 0.00 0.00 0.00 45 1018.3
20190422053312 51 90 1.0 1.0 0.00 0.00 0.00 45 1018.3
20190422052910 51 90 2.0 2.0 0.00 0.00 0.00 45 1018.2
20190422052509 52 90 0.0 1.0 0.00 0.00 0.00 45 1018.0
20190422051309 52 90 1.0 2.0 0.00 0.00 0.00 45 1017.9
20190422051305 52 90 1.0 2.0 0.00 0.00 0.00 45 1017.9
20190422050906 52 45 3.0 4.0 0.00 0.00 0.00 45 1018.1
20190422050904 52 45 3.0 4.0 0.00 0.00 0.00 45 1018.1
20190422050503 52 90 2.0 2.0 0.00 0.00 0.00 44 1018.0
20190422050105 52 45 1.0 3.0 0.00 0.00 0.00 44 1017.9
20190422050102 52 45 1.0 3.0 0.00 0.00 0.00 44 1017.9
20190422045258 53 135 3.0 3.0 0.00 0.00 0.00 44 1017.8
20190422044456 53 90 1.0 1.0 0.00 0.00 0.00 43 1017.7
20190422044055 54 90 1.0 3.0 0.00 0.00 0.00 43 1017.7
20190422043653 54 90 2.0 2.0 0.00 0.00 0.00 43 1017.8
20190422042850 54 90 1.0 3.0 0.00 0.00 0.00 43 1017.7
20190422042449 54 45 4.0 4.0 0.00 0.00 0.00 43 1017.7
20190422041647 55 270 0.0 2.0 0.00 0.00 0.00 42 1017.5
20190422040844 55 90 7.0 7.0 0.00 0.00 0.00 42 1017.6
20190422040442 56 90 1.0 1.0 0.00 0.00 0.00 41 1017.4
20190422040041 56 90 0.0 2.0 0.00 0.00 0.00 41 1017.4
20190422035642 56 90 2.0 5.0 0.00 0.00 0.00 41 1017.5
20190422035239 56 67 5.0 5.0 0.00 0.00 0.00 41 1017.5
20190422034838 58 270 0.0 2.0 0.00 0.00 0.00 40 1017.3
20190422034437 58 225 0.0 2.0 0.00 0.00 0.00 40 1017.1
20190422034038 58 270 0.0 1.0 0.00 0.00 0.00 40 1017.3
20190422034034 58 270 0.0 1.0 0.00 0.00 0.00 40 1017.3
20190422033636 58 101 1.0 1.0 0.00 0.00 0.00 40 1017.2
20190422033633 58 101 1.0 1.0 0.00 0.00 0.00 40 1017.2
20190422033232 58 90 1.0 3.0 0.00 0.00 0.00 39 1017.1
20190422032831 58 90 3.0 3.0 0.00 0.00 0.00 39 1017.3
20190422032430 58 90 3.0 4.0 0.00 0.00 0.00 39 1017.1
20190422032028 58 45 3.0 4.0 0.00 0.00 0.00 39 1017.1
20190422031626 59 67 4.0 4.0 0.00 0.00 0.00 38 1017.0
20190422031257 61 180 0.0 1.0 0.00 0.00 0.00 38 1017.0
20190422031225 61 180 0.0 1.0 0.00 0.00 0.00 38 1017.0
20190422030824 61 180 0.0 2.0 0.00 0.00 0.00 38 1016.9
20190422030423 62 180 0.0 2.0 0.00 0.00 0.00 37 1017.0
20190422030022 62 112 0.0 2.0 0.00 0.00 0.00 37 1016.9
20190422025620 62 112 0.0 3.0 0.00 0.00 0.00 37 1017.0
20190422024416 64 150 1.0 1.0 0.00 0.00 0.00 36 1016.9
20190422024015 65 180 0.0 3.0 0.00 0.00 0.00 36 1016.9
20190422023616 65 270 1.0 3.0 0.00 0.00 0.00 35 1016.9
20190422023614 65 270 1.0 3.0 0.00 0.00 0.00 35 1016.9
20190422023249 65 85 2.0 2.0 0.00 0.00 0.00 35 1016.9
20190422023215 65 85 2.0 2.0 0.00 0.00 0.00 35 1016.9
20190422023212 65 85 2.0 2.0 0.00 0.00 0.00 35 1016.9
20190422022814 66 45 0.0 2.0 0.00 0.00 0.00 35 1016.9
20190422022811 66 45 0.0 2.0 0.00 0.00 0.00 35 1016.9
20190422022410 66 45 1.0 2.0 0.00 0.00 0.00 35 1016.8
20190422022013 67 45 1.0 2.0 0.00 0.00 0.00 34 1016.9
20190422022008 67 45 1.0 2.0 0.00 0.00 0.00 34 1016.9
20190422021615 67 225 0.0 2.0 0.00 0.00 0.00 34 1016.7
20190422021607 67 225 0.0 2.0 0.00 0.00 0.00 34 1016.7
20190422020807 67 270 3.0 6.0 0.00 0.00 0.00 33 1016.9
20190422020804 67 270 3.0 6.0 0.00 0.00 0.00 33 1016.9
20190422020407 67 299 3.0 6.0 0.00 0.00 0.00 33 1016.8
20190422020405 67 299 3.0 6.0 0.00 0.00 0.00 33 1016.8
20190422020403 67 299 3.0 6.0 0.00 0.00 0.00 33 1016.8
20190422015604 68 279 2.0 7.0 0.00 0.00 0.00 33 1016.8
20190422015600 68 279 2.0 7.0 0.00 0.00 0.00 33 1016.8
20190422015204 68 294 4.0 6.0 0.00 0.00 0.00 33 1016.8
20190422015159 68 294 4.0 6.0 0.00 0.00 0.00 33 1016.8
20190422014801 69 285 3.0 8.0 0.00 0.00 0.00 33 1016.8
20190422013550 71 270 1.0 6.0 0.00 0.00 0.00 32 1016.9
20190422012748 71 270 3.0 7.0 0.00 0.00 0.00 32 1016.7
20190422012745 71 270 3.0 7.0 0.00 0.00 0.00 32 1016.7
20190422012346 71 315 1.0 7.0 0.00 0.00 0.00 32 1016.6
20190422012343 71 315 1.0 7.0 0.00 0.00 0.00 32 1016.6
20190422011543 72 186 4.0 5.0 0.00 0.00 0.00 32 1016.6
20190422011141 72 236 3.0 6.0 0.00 0.00 0.00 32 1016.7
20190422011139 72 236 3.0 6.0 0.00 0.00 0.00 32 1016.7
20190422010743 72 171 3.0 7.0 0.00 0.00 0.00 32 1016.6
20190422010740 0 171 3.0 7.0 0.00 0.00 0.00 32 1016.6
20190422010738 72 171 3.0 7.0 0.00 0.00 0.00 32 1016.6
20190422010337 72 162 5.0 8.0 0.00 0.00 0.00 32 1016.6
20190422005941 72 180 7.0 8.0 0.00 0.00 0.00 32 1016.5
20190422005935 72 180 7.0 8.0 0.00 0.00 0.00 32 1016.5
20190422005619 73 180 9.0 10.0 0.00 0.00 0.00 32 1016.6
20190422005535 73 180 9.0 10.0 0.00 0.00 0.00 32 1016.6
20190422005135 74 189 7.0 7.0 0.00 0.00 0.00 32 1016.7
20190422005132 74 189 7.0 7.0 0.00 0.00 0.00 32 1016.7
20190422004733 74 198 4.0 9.0 0.00 0.00 0.00 32 1016.6
20190422004731 74 198 4.0 9.0 0.00 0.00 0.00 32 1016.6
20190422003933 74 180 5.0 9.0 0.00 0.00 0.00 32 1016.6
20190422003929 74 180 5.0 9.0 0.00 0.00 0.00 32 1016.6
20190422003531 74 180 5.0 10.0 0.00 0.00 0.00 31 1016.6
20190422003527 74 180 5.0 10.0 0.00 0.00 0.00 31 1016.6